Other Public Products
Issued by NWS Grand Forks, ND

Home | Current Version | Previous Version | Graphics & Text | Print | Product List | Glossary On
Versions: 1 2 3 4 5 6 7 8 9 10 11 12 13 14 15 16 17 18 19 20 21 22 23 24 25 26 27 28 29 30 31 32 33 34 35 36 37 38 39 40 41 42 43 44 45 46 47 48 49 50
000
FPUS83 KFGF 282110
OPUFGF
PRAIRIE TO PINES WEATHER ROUNDUP
NATIONAL WEATHER SERVICE EASTERN NORTH DAKOTA/GRAND FORKS ND
400 PM CDT FRI APR 28 2017

 **SATELLITE DATA USED TO AUGMENT SKY COVER AT AUTOMATED STATIONS**
 *****  WEATHER ACROSS EASTERN NORTH DAKOTA  *****

CITY           SKY/WX    TMP DP  RH WIND       PRES   REMARKS
GRAND FORKS    FAIR      55  25  31 N21       30.01S
GRAND FORKS AF FAIR      52  19  26 N20G25    30.02S
GRAND CITY NWS NOT AVBL
BUXTON         NOT AVBL
DEVILS LAKE    FAIR      53  12  19 N16       30.04R
FARGO          FAIR      52  25  35 N17G25    30.01S
WAHPETON ARPT  FAIR      52  21  30 NW15      30.02R
$$

 *****  WEATHER ACROSS CENTRAL AND WESTERN NORTH DAKOTA  *****

CITY           SKY/WX    TMP DP  RH WIND       PRES   REMARKS
JAMESTOWN      FAIR      53  18  25 N14       30.03R
BISMARCK       FAIR      57  10  15 N13G20    30.06R
MINOT          FAIR      57  13  17 N7        30.06R
MINOT AFB      FAIR      55  16  22 NW9       30.05R
GARRISON         N/A     53  11  18 VRB6      30.06R
WILLISTON      FAIR      57  20  23 SW6       30.07R
DICKINSON      FAIR      52  16  24 E10       30.03R
HETTINGER      FAIR      52  21  29 E10       30.05R
$$

 *****  OTHER OBSERVATIONS NORTHEAST NORTH DAKOTA  *****

CITY           SKY/WX    TMP DP  RH WIND       PRES   REMARKS
WALHALLA       NOT AVBL
LANGDON        FAIR      55  10  16 N14G20    30.02R
CAVALIER       FAIR      52  14  22 N18G29    30.03R
GRAFTON        FAIR      52  18  25 N21       30.03R
CANDO          NOT AVBL
FORT TOTTEN      N/A     53  14  21 N8        29.95S
ROLLA          FAIR      52  12  20 N14G22    30.05R
RUGBY          NOT AVBL
 ***** THE ABOVE OBSERVATIONS ARE NON NWS ARE NOT QUALITY
        CONTROLLED AND MAY MIS-REPORT RAIN FOR SNOW...
$$

 *****  OTHER OBSERVATIONS SOUTHEAST NORTH DAKOTA *****

CITY           SKY/WX    TMP DP  RH WIND       PRES   REMARKS
COOPERSTOWN    FAIR      52  23  32 N16G24    30.03S
VALLEY CITY    FAIR      52  18  25 N12G20    30.04R
OAKES          NOT AVBL
GWINNER        CLEAR     54  23  30 MISG      30.03R
SHEYENNE NWR     N/A     54  16  22 N10       29.95S
BUFFALO        NOT AVBL
WYNDMERE         N/A     54  21  28 N14         N/A
 ***** THE ABOVE OBSERVATIONS ARE NON NWS ARE NOT QUALITY
       CONTROLLED AND MAY MIS-REPORT RAIN FOR SNOW...
$$

  *****  WEATHER ACROSS NORTHERN MINNESOTA  *****

CITY           SKY/WX    TMP DP  RH WIND       PRES   REMARKS
FLAG ISLAND    FAIR      43  21  42 NW14      29.98R
WARROAD        FAIR      46  19  34 NW6       30.00R
ROSEAU         FAIR      48  18  29 N7        30.00R
HALLOCK        FAIR      55   5  13 N12G25    30.00S
THF RVR FALLS  FAIR      49  12  22 N16       30.01R
HALSTAD          N/A     51  28  42 N16         N/A
FOSSTON        FAIR      48  23  37 N14G20    30.00R
BAUDETTE       FAIR      46  24  42 NW17G23   29.97R
WASKISH        FAIR      46  27  46 N14G22    29.97R
CROOKSTON      FAIR      52  25  35 N13G18    30.01S
$$
  *****  WEATHER ACROSS CENTRAL AND WEST MINNESOTA  *****

CITY           SKY/WX    TMP DP  RH WIND       PRES   REMARKS
BEMIDJI        FAIR      46  16  29 NW15      29.97R
PARK RAPIDS    FAIR      50   9  19 N15G22    29.95R
WADENA         FAIR      48  21  34 N15       29.96R
DETROIT LAKES  FAIR      48  23  37 N12G25    30.00R
MOORHEAD       FAIR      52  25  35 N18       30.02R
FERGUS FALLS   FAIR      52  27  37 N12G23    29.99R
ELBOW LAKE     FAIR      48  24  38 NW10G17   30.00S
MORRIS MN      FAIR      52  21  30 N12G23    29.98S
STAPLES        FAIR      52  12  20 N12G22    29.95R
WHEATON        FAIR      50  21  32 N15       30.03S
$$
  *****  WEATHER ELSEWHERE ACROSS MINNESOTA  *****

CITY           SKY/WX    TMP DP  RH WIND       PRES   REMARKS
DULUTH         PTSUNNY   48  26  42 NW13      29.89S
INTRNTL FALLS  FAIR      41  25  53 N12       29.96R
ELY            FAIR      39  25  56 NW15G21   29.92R
CLOQUET        CLOUDY    48  18  29 NW10G21   29.91R
BRAINERD       FAIR      50  19  29 N10G21    29.95R
HIBBING        FAIR      46  28  49 NW16G23   29.91R
ALEXANDRIA     FAIR      50  23  34 N14       29.98R
SAINT CLOUD    FAIR      49  27  42 N7        29.95F
MINNEAPOLIS    PTSUNNY   51  29  42 VRB6      29.95S
$$

  *****  WEATHER ACROSS SOUTH DAKOTA  *****

CITY           SKY/WX    TMP DP  RH WIND       PRES   REMARKS
SIOUX FALLS    CLOUDY    49  34  56 NE14      29.96R
BROOKINGS      FAIR      49  27  42 NE17G28   29.95S
WATERTOWN      FAIR      48  22  35 N18       29.98R
HURON          FAIR      54  24  31 NE17      29.98R
SISSETON         N/A     53  22  29 N15G23    30.00S
ABERDEEN       FAIR      53  15  22 NE16G23   30.03R
MITCHELL       FAIR      52  28  39 NE13G18   29.97S
PIERRE         FAIR      54  24  31 E23G29    29.99R
MOBRIDGE       FAIR      57  12  17 NE15G22   30.01R
RAPID CITY     PTSUNNY   46  27  47 NE12G17   30.00R
$$

  *****  SOME WEATHER IN NEARBY STATES *****

CITY           SKY/WX    TMP DP  RH WIND       PRES   REMARKS
GLASGOW MT     FAIR      58  22  24 W8        30.04R
GREAT FALLS MT CLOUDY    41  37  86 SW8       30.08R
CHEYENNE WY    FLURRIES  32  27  81 NE17G30   29.80R WCI  21
SCOTTSBLUFF NE LGT SNOW  34  31  88 E20       29.92R VSB 1   WCI  23
OMAHA NE       DRIZZLE   41  36  82 NE14      29.86R
DES MOINES IA  CLOUDY    42  39  89 NE15      29.86R
DAVENPORT IA   CLOUDY    47  45  93 NE14      29.82S
CHICAGO IL     CLOUDY    58  45  62 E10       29.85F
EAU CLAIRE WI  FAIR      49  28  44 MISG      29.93S
LA CROSSE WI   FAIR      49  33  54 N5        29.91F
$$

  *****  SOME NATIONAL WEATHER *****

CITY           SKY/WX    TMP DP  RH WIND       PRES   REMARKS
LA GUARDIA NY  FAIR      81  56  42 S17       29.96F
RALEIGH NC     FAIR      87  67  51 SW13      30.04F HX  90
ATLANTA GA     FAIR      83  65  54 S9G22     30.03F
NEW ORLEANS LA PTSUNNY   83  74  74 S14G29    29.87F
OKLAHOMA CITY  PTSUNNY   76  56  49 NE7       29.61F
ALBUQUERQUE NM LGT RAIN  44  39  82 VRB3      29.79S
SALT LAKE CITY LGT RAIN  41  36  82 NW20      29.94R
LOS ANGELES CA FAIR      73  45  36 W28       29.78R
BOISE ID       PTSUNNY   56  29  35 NW23G30   30.08R
SEATTLE WA     PTSUNNY   56  39  53 VRB7      30.36S
$$

*** WEATHER ACROSS MANITOBA...SASKATCHEWAN AND ONTARIO ***
                ***ONTARIO***

CITY           SKY/WX    TMP DP  RH WIND       PRES   REMARKS
GERALDTON      LGT SNOW  28  19  69 W13G24    29.73R DRFTSNOWWCI  18
THUNDER BAY    CLOUDY    34  23  64 NW12G22   29.87R
SIOUX LOOKOUT  PTSUNNY   36  19  51 NW12G17   29.90R
TORONTO        PTSUNNY   64  41  42 SW21G29   29.97R
BIG TROUT LK   LGT SNOW  30  23  74 N13G23    29.84  WCI  20
PICKLE LAKE    FLURRIES  32  19  59 NW13G24   29.81R WCI  22
DRYDEN         PTSUNNY   37  21  52 NW8G17    29.93R
KENORA         PTSUNNY   45  16  31 N12       29.96R
$$
                *** MANITOBA***

CITY           SKY/WX    TMP DP  RH WIND       PRES   REMARKS
BRANDON        MOSUNNY   55  10  16 N10       30.05R
DAUPHIN        SUNNY     52  12  20 NE12G17   30.07R
ISLAND LAKE    PTSUNNY   39  10  30 NW13      30.02R
PILOT MOUND      N/A     54   7  15 N14G24      N/A
THE PAS        MOSUNNY   52   5  15 NE7       30.07F
THOMPSON       PTSUNNY   43  10  26 N10G20    30.07R
WINNIPEG       MOSUNNY   52  10  19 N15       30.03R
LYNN LAKE      MOSUNNY   46  19  34 NE6       30.10R
CHURCHILL      CLOUDY    25  21  86 N25G31    30.15R WCI   9
GILLAM         PTSUNNY   41  18  38 NE9       30.05R
$$
                ***SASKATCHEWAN***

CITY           SKY/WX    TMP DP  RH WIND       PRES   REMARKS
ESTEVAN        PTSUNNY   54  21  28 CALM      30.06S
KINDERSLEY     PTSUNNY   43  34  70 NW17G28   30.05R
LLOYDMINSTER   PTSUNNY   45  28  53 E5        30.07R
PRINCE ALBERT  PTSUNNY   55  14  19 VRB3      30.05R
REGINA         PTSUNNY   59  19  21 S13G18    30.02S
YORKTON        SUNNY     55  19  24 NW9       30.05S



USA.gov is the U.S. government's official web portal to all federal, state and local government web resources and services.